Williston, ND

7:39 PM CST on December 07, 2016 (GMT -0600)
Sloulin International

Weather History for KISN - August, 2013

Change the Weather History Date:

Saturday, August 17, 2013

  Actual Average Record
Temperature  
Mean Temperature 77 °F 69 °F  
Max Temperature 92 °F 84 °F 102 °F (1996)
Min Temperature 61 °F 54 °F 37 °F (1977)
Degree Days  
Heating Degree Days 0 1  
Month to date heating degree days 21 17  
Since 1 June heating degree days 174 161  
Since 1 July heating degree days 46 41  
Cooling Degree Days 12 5  
Month to date cooling degree days 39 111  
Year to date cooling degree days 200 374  
Since 1 June cooling degree days 192 361  
Growing Degree Days 26 (Base 50)    
Moisture  
Dew Point 62 °F    
Average Humidity 64    
Maximum Humidity 93    
Minimum Humidity 34    
Precipitation  
Precipitation 0.00 in 0.05 in 1.36 in (1930)
Month to date precipitation 1.76 0.82  
Year to date precipitation 15.48 10.49  
Snow  
Snow 0.00 in - - ()
Month to date snowfall 0.0  
Since 1 June snowfall 0.0  
Snow Depth 0.00 in    
Sea Level Pressure  
Sea Level Pressure 29.84 in    
Wind  
Wind Speed 6 mph (South)    
Max Wind Speed 17 mph    
Max Gust Speed 21 mph    
Visibility 10 miles    
Events      
T = Trace of Precipitation, MM = Missing Value Source: NWS Daily Summary

Daily Weather History Graph

Daily Weather History Graph

Search for Another Location

Airport or City:

Trip Planner

Search our weather history database for the weather conditions in past years. The results will help you decide how hot, cold, wet, or windy it might be!

Date:

Astronomy

Aug. 17, 2013 Rise Set
Actual Time 6:52 AM CDT 9:03 PM CDT
Civil Twilight 6:18 AM CDT 9:37 PM CDT
Nautical Twilight 5:35 AM CDT 10:20 PM CDT
Astronomical Twilight 4:47 AM CDT 11:07 PM CDT
Moon 6:29 PM CDT (8/17) 2:48 AM CDT (8/17)
Length of Visible Light 15h 19m
Length of Day
14h 11m
Waxing Gibbous, 84% of the Moon is Illuminated
Aug 17
Waxing Gibbous
Aug 20
Full
Aug 28
Last Quarter
Sep 5
New
Sep 12
First Quarter

Hourly Weather History & Observations

Time (CDT) Temp. Heat Index Dew Point Humidity Pressure Visibility Wind Dir Wind Speed Gust Speed Precip Events Conditions
12:52 AM 70.0 °F - 59.0 °F 68% 29.87 in 10.0 mi South 8.1 mph - N/A   Clear
1:52 AM 69.1 °F - 59.0 °F 70% 29.87 in 10.0 mi SSE 6.9 mph - N/A   Clear
2:52 AM 66.0 °F - 59.0 °F 78% 29.87 in 10.0 mi Calm Calm - N/A   Clear
3:52 AM 64.9 °F - 59.0 °F 81% 29.87 in 10.0 mi South 3.5 mph - N/A   Clear
4:52 AM 63.0 °F - 57.9 °F 84% 29.87 in 10.0 mi Calm Calm - N/A   Clear
5:52 AM 64.9 °F - 60.1 °F 84% 29.86 in 10.0 mi South 5.8 mph - N/A   Clear
6:52 AM 63.0 °F - 60.1 °F 90% 29.86 in 10.0 mi SSW 3.5 mph - N/A   Clear
7:52 AM 64.0 °F - 61.0 °F 90% 29.87 in 8.0 mi North 3.5 mph - N/A   Clear
8:52 AM 66.0 °F - 62.1 °F 87% 29.88 in 9.0 mi Calm Calm - N/A   Clear
9:52 AM 70.0 °F - 62.1 °F 76% 29.86 in 10.0 mi SSE 5.8 mph - N/A   Partly Cloudy
10:52 AM 73.0 °F - 64.0 °F 73% 29.86 in 10.0 mi SSE 5.8 mph - N/A   Clear
11:52 AM 77.0 °F - 64.9 °F 66% 29.85 in 10.0 mi South 6.9 mph - N/A   Clear
12:52 PM 81.0 °F 82.7 °F 64.9 °F 58% 29.84 in 10.0 mi SSE 5.8 mph - N/A   Clear
1:52 PM 84.9 °F 85.9 °F 63.0 °F 48% 29.82 in 10.0 mi SSE 11.5 mph - N/A   Clear
2:52 PM 89.1 °F 87.7 °F 57.0 °F 34% 29.81 in 10.0 mi South 9.2 mph - N/A   Clear
3:52 PM 89.1 °F 88.0 °F 57.9 °F 35% 29.80 in 10.0 mi SSW 8.1 mph - N/A   Clear
4:52 PM 90.0 °F 89.7 °F 60.1 °F 37% 29.79 in 10.0 mi WSW 4.6 mph - N/A   Clear
5:52 PM 90.0 °F 91.3 °F 64.0 °F 42% 29.79 in 10.0 mi NW 10.4 mph - N/A   Clear
6:52 PM 84.9 °F 86.6 °F 64.9 °F 51% 29.81 in 10.0 mi NNW 15.0 mph - N/A   Clear
7:52 PM 82.9 °F 84.4 °F 64.0 °F 53% 29.80 in 10.0 mi North 10.4 mph - N/A   Clear
8:52 PM 77.0 °F - 64.9 °F 66% 29.81 in 10.0 mi North 8.1 mph - N/A   Clear
9:52 PM 73.9 °F - 63.0 °F 68% 29.83 in 10.0 mi NNW 8.1 mph - N/A   Clear
10:52 PM 71.1 °F - 63.0 °F 75% 29.83 in 10.0 mi North 4.6 mph - N/A   Clear
11:52 PM 70.0 °F - 63.0 °F 78% 29.85 in 10.0 mi Calm Calm - N/A   Clear